When you browse on this site, cookies collect data to enhance your experience and personalize the content and advertising you see.
Visit our Privacy Policy to learn more. By continuing to use the site, you agree to this use of cookies and data.

Hourly Weather Balchik

Today, 29 September, Tuesday

Time Temperature Precipitation Wind Pressure Humidity
00:00 +20°C° 0 mm 5 mps 736 mmHg 86%
01:00 +20°C° 0 mm 5 mps 736 mmHg 84%
02:00 +20°C° 0 mm 5 mps 736 mmHg 82%
03:00 +20°C° 0.2 mm 5 mps 735 mmHg 83%
04:00 +19°C° 0.2 mm 4 mps 735 mmHg 84%
05:00 +19°C° 0.2 mm 4 mps 735 mmHg 86%
06:00 +19°C° 0 mm 4 mps 735 mmHg 82%
07:00 +20°C° 0 mm 4 mps 734 mmHg 79%
08:00 +20°C° 0 mm 4 mps 734 mmHg 76%
09:00 +22°C° 0 mm 4 mps 734 mmHg 67%
10:00 +23°C° 0 mm 5 mps 735 mmHg 59%
11:00 +25°C° 0 mm 5 mps 735 mmHg 50%
12:00 +23°C° 0.4 mm 6 mps 735 mmHg 53%
13:00 +22°C° 0.4 mm 7 mps 735 mmHg 56%
14:00 +21°C° 0.4 mm 7 mps 734 mmHg 59%
15:00 +20°C° 0 mm 7 mps 734 mmHg 60%
16:00 +20°C° 0 mm 6 mps 734 mmHg 60%
17:00 +19°C° 0 mm 5 mps 734 mmHg 61%
18:00 +18°C° 0 mm 4 mps 734 mmHg 63%
19:00 +17°C° 0 mm 4 mps 734 mmHg 65%
20:00 +16°C° 0 mm 3 mps 734 mmHg 67%
21:00 +15°C° 0 mm 4 mps 734 mmHg 67%
22:00 +15°C° 0 mm 5 mps 734 mmHg 67%
23:00 +15°C° 0 mm 5 mps 734 mmHg 67%

Tomorrow, 30 September, Wednesday

Time Temperature Precipitation Wind Pressure Humidity
00:00 +14°C° 0 mm 6 mps 734 mmHg 66%
01:00 +14°C° 0 mm 6 mps 734 mmHg 66%
02:00 +14°C° 0 mm 6 mps 734 mmHg 66%
03:00 +13°C° 0 mm 6 mps 734 mmHg 66%
04:00 +13°C° 0 mm 6 mps 734 mmHg 67%
05:00 +13°C° 0 mm 6 mps 734 mmHg 67%
06:00 +12°C° 0 mm 7 mps 734 mmHg 65%
07:00 +12°C° 0 mm 7 mps 734 mmHg 62%
08:00 +13°C° 0 mm 8 mps 734 mmHg 60%
09:00 +15°C° 0 mm 8 mps 734 mmHg 55%
10:00 +17°C° 0 mm 8 mps 734 mmHg 50%
11:00 +18°C° 0 mm 8 mps 734 mmHg 44%
12:00 +20°C° 0 mm 8 mps 733 mmHg 42%
13:00 +20°C° 0 mm 8 mps 733 mmHg 40%
14:00 +21°C° 0 mm 8 mps 733 mmHg 38%
15:00 +21°C° 0 mm 7 mps 733 mmHg 39%
16:00 +20°C° 0 mm 7 mps 733 mmHg 41%
17:00 +19°C° 0 mm 6 mps 732 mmHg 42%
18:00 +19°C° 0 mm 6 mps 733 mmHg 45%
19:00 +17°C° 0 mm 5 mps 733 mmHg 47%
20:00 +17°C° 0 mm 4 mps 733 mmHg 49%
21:00 +15°C° 0 mm 4 mps 733 mmHg 53%
22:00 +14°C° 0 mm 4 mps 733 mmHg 57%
23:00 +13°C° 0 mm 4 mps 733 mmHg 61%

Day after tomorrow, 1 October, Thursday

Time Temperature Precipitation Wind Pressure Humidity
00:00 +13°C° 0 mm 4 mps 732 mmHg 62%
01:00 +13°C° 0 mm 5 mps 732 mmHg 64%
02:00 +13°C° 0 mm 5 mps 732 mmHg 65%
03:00 +12°C° 0 mm 5 mps 732 mmHg 65%
04:00 +12°C° 0 mm 4 mps 732 mmHg 66%
05:00 +12°C° 0 mm 4 mps 732 mmHg 66%
06:00 +13°C° 0 mm 4 mps 732 mmHg 62%
07:00 +14°C° 0 mm 5 mps 732 mmHg 59%
08:00 +15°C° 0 mm 5 mps 732 mmHg 56%
09:00 +16°C° 0 mm 5 mps 732 mmHg 51%
10:00 +17°C° 0 mm 6 mps 732 mmHg 47%
11:00 +19°C° 0 mm 6 mps 732 mmHg 43%
12:00 +19°C° 0 mm 5 mps 732 mmHg 44%
13:00 +19°C° 0 mm 5 mps 732 mmHg 45%
14:00 +19°C° 0 mm 4 mps 732 mmHg 46%
15:00 +19°C° 0.1 mm 3 mps 733 mmHg 47%
16:00 +19°C° 0.1 mm 2 mps 733 mmHg 49%
17:00 +20°C° 0.1 mm 1 mps 733 mmHg 50%
18:00 +19°C° 0.1 mm 1 mps 733 mmHg 53%
19:00 +18°C° 0.1 mm 1 mps 733 mmHg 56%
20:00 +18°C° 0.1 mm 1 mps 733 mmHg 59%
21:00 +16°C° 0 mm 1 mps 733 mmHg 61%
22:00 +16°C° 0 mm 1 mps 733 mmHg 63%
23:00 +14°C° 0 mm 0 mps 733 mmHg 65%

2 October, Friday

Time Temperature Precipitation Wind Pressure Humidity
00:00 +15°C° 0 mm 1 mps 733 mmHg 66%
01:00 +15°C° 0 mm 1 mps 733 mmHg 67%
02:00 +14°C° 0 mm 1 mps 733 mmHg 68%
03:00 +14°C° 0 mm 1 mps 733 mmHg 69%
04:00 +14°C° 0 mm 1 mps 734 mmHg 69%
05:00 +13°C° 0 mm 1 mps 734 mmHg 70%
06:00 +14°C° 0 mm 1 mps 734 mmHg 68%
07:00 +15°C° 0 mm 1 mps 734 mmHg 65%
08:00 +16°C° 0 mm 1 mps 735 mmHg 62%
09:00 +18°C° 0 mm 2 mps 735 mmHg 55%
10:00 +20°C° 0 mm 3 mps 735 mmHg 48%
11:00 +22°C° 0 mm 3 mps 736 mmHg 41%
12:00 +22°C° 0 mm 3 mps 736 mmHg 39%
13:00 +24°C° 0 mm 3 mps 736 mmHg 38%
14:00 +24°C° 0 mm 3 mps 736 mmHg 36%
15:00 +24°C° 0 mm 3 mps 736 mmHg 40%
16:00 +22°C° 0 mm 3 mps 736 mmHg 43%
17:00 +21°C° 0 mm 3 mps 736 mmHg 47%
18:00 +20°C° 0 mm 2 mps 736 mmHg 55%
19:00 +18°C° 0 mm 2 mps 736 mmHg 62%
20:00 +17°C° 0 mm 2 mps 737 mmHg 70%
21:00 +17°C° 0 mm 2 mps 737 mmHg 73%
22:00 +16°C° 0 mm 2 mps 737 mmHg 77%
23:00 +16°C° 0 mm 2 mps 737 mmHg 80%

3 October, Saturday

Time Temperature Precipitation Wind Pressure Humidity
00:00 +16°C° 0 mm 2 mps 737 mmHg 82%
01:00 +16°C° 0 mm 2 mps 737 mmHg 83%
02:00 +16°C° 0 mm 1 mps 737 mmHg 85%
03:00 +16°C° 0 mm 1 mps 737 mmHg 85%
04:00 +16°C° 0 mm 1 mps 737 mmHg 86%
05:00 +16°C° 0 mm 1 mps 738 mmHg 87%
06:00 +18°C° 0 mm 1 mps 738 mmHg 79%
07:00 +18°C° 0 mm 2 mps 738 mmHg 71%
08:00 +20°C° 0 mm 2 mps 738 mmHg 62%
09:00 +23°C° 0 mm 2 mps 739 mmHg 53%
10:00 +25°C° 0 mm 3 mps 739 mmHg 44%
11:00 +27°C° 0 mm 4 mps 739 mmHg 34%
12:00 +28°C° 0 mm 4 mps 739 mmHg 33%
13:00 +28°C° 0 mm 4 mps 739 mmHg 31%
14:00 +29°C° 0 mm 4 mps 739 mmHg 29%
15:00 +28°C° 0 mm 4 mps 738 mmHg 34%
16:00 +27°C° 0 mm 4 mps 738 mmHg 40%
17:00 +25°C° 0 mm 4 mps 738 mmHg 45%
18:00 +23°C° 0 mm 4 mps 738 mmHg 52%
19:00 +21°C° 0 mm 4 mps 738 mmHg 59%
20:00 +20°C° 0 mm 4 mps 739 mmHg 65%
21:00 +19°C° 0 mm 4 mps 739 mmHg 69%
22:00 +19°C° 0 mm 4 mps 739 mmHg 72%
23:00 +19°C° 0 mm 4 mps 739 mmHg 76%

4 October, Sunday

Time Temperature Precipitation Wind Pressure Humidity
00:00 +19°C° 0 mm 3 mps 739 mmHg 78%
01:00 +18°C° 0 mm 3 mps 739 mmHg 79%
02:00 +18°C° 0 mm 3 mps 739 mmHg 81%
03:00 +18°C° 0 mm 3 mps 739 mmHg 80%
04:00 +18°C° 0 mm 3 mps 739 mmHg 78%
05:00 +18°C° 0 mm 3 mps 739 mmHg 77%
06:00 +19°C° 0 mm 3 mps 739 mmHg 69%
07:00 +20°C° 0 mm 4 mps 739 mmHg 61%
08:00 +22°C° 0 mm 4 mps 740 mmHg 52%
09:00 +25°C° 0 mm 5 mps 740 mmHg 45%
10:00 +27°C° 0 mm 5 mps 740 mmHg 38%
11:00 +28°C° 0 mm 6 mps 740 mmHg 30%
12:00 +29°C° 0 mm 6 mps 740 mmHg 30%
13:00 +29°C° 0 mm 6 mps 740 mmHg 29%
14:00 +29°C° 0 mm 6 mps 739 mmHg 29%
15:00 +28°C° 0 mm 6 mps 739 mmHg 37%
16:00 +26°C° 0 mm 6 mps 739 mmHg 44%
17:00 +23°C° 0 mm 6 mps 738 mmHg 52%
18:00 +22°C° 0 mm 5 mps 739 mmHg 62%
19:00 +21°C° 0 mm 5 mps 739 mmHg 71%
20:00 +19°C° 0 mm 5 mps 739 mmHg 81%
21:00 +19°C° 0 mm 5 mps 739 mmHg 83%
22:00 +19°C° 0 mm 5 mps 739 mmHg 84%
23:00 +19°C° 0 mm 6 mps 739 mmHg 86%
Show more